Regional Weather Roundup
Issued by NWS

Home | Current Version | Previous Version | Graphics & Text | Print | Product List | Glossary On
Versions: 1 2 3 4 5 6 7 8 9 10 11 12 13 14 15 16 17 18 19 20 21 22 23 24 25 26 27 28 29 30 31 32 33 34 35 36 37 38 39 40 41 42 43 44 45 46 47 48 49 50
000
ASUS43 KLMK 282210
RWRKY
KENTUCKY REGIONAL WEATHER ROUNDUP
NATIONAL WEATHER SERVICE LOUISVILLE KY
600 PM EDT FRI AUG 28 2015

NOTE "FAIR" INDICATES FEW OR NO CLOUDS BELOW 12,000 FEET
WITH NO SIGNIFICANT WEATHER AND/OR OBSTRUCTIONS TO VISIBILITY.

KYZ001>023-026-027-061>063-070>075-282300-
WESTERN AND SOUTH CENTRAL KENTUCKY

CITY           SKY/WX    TMP DP  RH WIND       PRES   REMARKS
PADUCAH        MOSUNNY   85  64  49 VRB3      30.03F
HENDERSON      SUNNY     81  61  50 SE3       30.04F
OWENSBORO      SUNNY     85  63  47 S6        30.06F
HOPKINSVILLE   MOSUNNY   87  62  42 VRB5      30.04S
BOWLING GREEN  SUNNY     87  60  40 SE7       30.05F
GLASGOW        SUNNY     86  60  41 SE5       30.07S
$$

KYZ024-025-028>034-038-045-046-053-282300-
NORTH CENTRAL KENTUCKY

CITY           SKY/WX    TMP DP  RH WIND       PRES   REMARKS
LOUISVILLE/SDF PTSUNNY   83  59  44 SW7       30.08F
LOUISVILLE/LOU MOSUNNY   83  57  41 VRB5      30.09F
FORT KNOX      PTSUNNY   82  62  51 VRB3      30.07F
$$

KYZ035>037-039>044-047>052-055>060-089>105-282300-
NORTHEAST KENTUCKY

CITY           SKY/WX    TMP DP  RH WIND       PRES   REMARKS
LEXINGTON      MOSUNNY   84  59  42 CALM      30.11S
COVINGTON      CLOUDY    78  57  48 S8        30.12F
FRANKFORT      SUNNY     82  58  43 W3        30.10S
$$

KYZ054-064>069-076>088-106>120-282300-
SOUTHEAST KENTUCKY

CITY           SKY/WX    TMP DP  RH WIND       PRES   REMARKS
JACKSON        SUNNY     81  60  48 CALM      30.13F
LONDON         MOSUNNY   82  60  47 E3        30.12S
SOMERSET       PTSUNNY   81  61  50 E3        30.11S
MIDDLESBORO    SUNNY     84  59  41 CALM      30.12S
MONTICELLO     CLEAR     81  68  64 CALM      30.12S
$$



USA.gov is the U.S. government's official web portal to all federal, state and local government web resources and services.